Torna al catalogo

QIANFAN-110

AttivoComunicazioniPO
NORAD 68637·PAYLOAD·🇨🇳 China

Lanciato Apr 7, 2026 da Wenchang Space Launch Site

Loading…

Prossimi Passaggi (prossime 24 ore)

TLE

AggiornatoSource: Space-Track

Epoca: Sep 14, 2026, 14:50 UTC

1 68637U 26075B   26257.61844456  .00000069  00000-0  87920-4 0  9995
2 68637  88.9874 311.9102 0002274  98.6742 261.4667 13.51031498 21868

Traccia QIANFAN-110 in tempo reale con AllMySat

Download on the App Store